Regional Weather Roundup
Issued by NWS

Home | Current Version | Previous Version | Graphics & Text | Print | Product List | Glossary On
Versions: 1 2 3 4 5 6 7 8 9 10 11 12 13 14 15 16 17 18 19 20 21 22 23 24 25 26 27 28 29 30 31 32 33 34 35 36 37 38 39 40 41 42 43 44 45 46 47 48 49 50
000
ASUS45 KCYS 170610
RWRWY

WYOMING REGIONAL WEATHER ROUNDUP
NATIONAL WEATHER SERVICE CHEYENNE WY
1200 AM MDT FRI APR 17 2015

NOTE:  "FAIR" INDICATES FEW OR NO CLOUDS BELOW 12,000 FEET
WITH NO SIGNIFICANT WEATHER AND/OR OBSTRUCTIONS TO VISIBILITY.

WYZ001-170700-
YELLOWSTONE NATIONAL PARK

CITY           SKY/WX    TMP DP  RH WIND       PRES   REMARKS
LK YELLOWSTONE   N/A     25  20  81 CALM      30.28R
6HR MIN TEMP:  25; 6HR MAX TEMP:  40;

W YELLOWSTONE  NOT AVBL

$$
WYZ002>013-054>058-071-098>099-170700-
NORTHERN WYOMING

CITY           SKY/WX    TMP DP  RH WIND       PRES   REMARKS
JACKSON        FAIR      34  25  69 N17       30.22S WCI  23
CODY           FAIR      36  28  75 SW10      30.25F WCI  28
GREYBULL       FAIR      41  28  60 CALM      30.26S
6HR MIN TEMP:  38; 6HR MAX TEMP:  56;

WORLAND        FAIR      34  29  82 CALM      30.26R
6HR MIN TEMP:  33; 6HR MAX TEMP:  50;

SHERIDAN       FAIR      32  27  81 S6        30.25S WCI  26
6HR MIN TEMP:  31; 6HR MAX TEMP:  52;

BUFFALO        FAIR      35  25  66 W6        30.25S WCI  30
6HR MIN TEMP:  35; 6HR MAX TEMP:  50;

GILLETTE       FAIR      30  26  85 NW3       30.23F
6HR MIN TEMP:  28; 6HR MAX TEMP:  51;

HULETT         FAIR      37  30  75 CALM      30.25S
NEWCASTLE      CLOUDY    43  32  65 CALM      30.24R

$$
WYZ014>020-022>026-101>103-170700-
CENTRAL WYOMING

CITY           SKY/WX    TMP DP  RH WIND       PRES   REMARKS
BIG PINEY      CLOUDY    34  30  85 E3        30.23F
6HR MIN TEMP:  34; 6HR MAX TEMP:  51;

PINEDALE       FAIR      28  28 100 NW3       30.25S
DUBOIS         FAIR      28  21  74 CALM      30.27R
LANDER         CLOUDY    36  31  82 W7        30.25F WCI  30
6HR MIN TEMP:  33; 6HR MAX TEMP:  40; 6HR PCP:  0.01;

RIVERTON       CLOUDY    38  32  79 SW3       30.27F
6HR MIN TEMP:  36; 6HR MAX TEMP:  44;

CASPER         CLOUDY    37  33  85 CALM      30.25F
6HR MIN TEMP:  36; 6HR MAX TEMP:  39; 6HR PCP: TRACE;

DOUGLAS        CLOUDY    38  38 100 NW8       30.24S WCI  32
6HR MIN TEMP:  38; 6HR MAX TEMP:  43; 6HR PCP:  0.07;


$$
WYZ021-027>030-104>119-170700-
SOUTHERN WYOMING

CITY           SKY/WX    TMP DP  RH WIND       PRES   REMARKS
EVANSTON       MOCLDY    32  27  81 NE8       30.21R WCI  25
6HR MIN TEMP:  32; 6HR MAX TEMP:  36; 6HR PCP: TRACE;

FORT BRIDGER   CLOUDY    32  32 100 CALM      30.25R FOG
ROCK SPRINGS   CLOUDY    32  27  81 NE18      30.19F WCI  20
6HR MIN TEMP:  31; 6HR MAX TEMP:  33;

DIXON          FAIR      37  29  73 NE16      30.11F WCI  28
RAWLINS        CLOUDY    33  29  85 NE17      30.18F WCI  22
6HR MIN TEMP:  32; 6HR MAX TEMP:  34; 6HR PCP: TRACE;

SARATOGA       MOCLDY    34  30  86 MISG      30.16F
LARAMIE        LGT SNOW  31  29  92 N8        30.16F FOG     WCI  23
6HR MIN TEMP:  29; 6HR MAX TEMP:  32; 6HR PCP:  0.01;

CHEYENNE       LGT SNOW  33  31  92 N16G22    30.15S FOG     WCI  23
6HR MIN TEMP:  33; 6HR MAX TEMP:  34; 6HR PCP:  0.19;

TORRINGTON     CLOUDY    43  42  97 W7        30.17F
6HR MIN TEMP:  43; 6HR MAX TEMP:  45; 6HR PCP:  0.14;

PINE BLUFFS    RAIN      37  37 100 N15       30.14F WCI  28

$$


USA.gov is the U.S. government's official web portal to all federal, state and local government web resources and services.